Regional Weather Roundup
Issued by NWS Northern Indiana

Home | Current Version | Previous Version | Graphics & Text | Print | Product List | Glossary On
Versions: 1 2 3 4 5 6 7 8 9 10 11 12 13 14 15 16 17 18 19 20 21 22 23 24 25 26 27 28 29 30 31 32 33 34 35 36 37 38 39 40 41 42 43 44 45 46 47 48 49 50
484
ASUS43 KIWX 040600
RWRIWX

KIWX WEATHER ROUNDUP
NATIONAL WEATHER SERVICE NORTHERN INDIANA
200 AM EDT WED MAY 04 2016

NOTE: "FAIR" INDICATES FEW OR NO CLOUDS BELOW 12,000 FEET WITH NO
SIGNIFICANT WEATHER AND/OR OBSTRUCTIONS TO VISIBILITY.

* THESE STATIONS ARE NOT UNDER NWS QUALITY CONTROL. THEY ALSO MAY NOT
  REPORT WEATHER SUCH AS PRECIPITATION OR FOG.

INZ001>027-040700-
NORTHERN INDIANA

CITY           SKY/WX    TMP DP  RH WIND       PRES   REMARKS
SOUTH BEND     CLOUDY    55  41  59 SW6       29.69F
6HR MIN TEMP:  55; 6HR MAX TEMP:  61; 6HR PCP: TRACE;

GOSHEN         PTCLDY    54  43  66 S12       29.69F
6HR MIN TEMP:  54; 6HR MAX TEMP:  59;

ANGOLA*        MOCLDY    52  46  82 S6        29.71F
FORT WAYNE     CLOUDY    53  44  71 S12       29.74F
6HR MIN TEMP:  50; 6HR MAX TEMP:  58;

PERU/GRISSOM   CLOUDY    54  46  76 SW12      29.72F

$$
INZ028>050-040700-
CENTRAL INDIANA

CITY           SKY/WX    TMP DP  RH WIND       PRES   REMARKS
LAFAYETTE      CLOUDY    52  44  74 SW7       29.75F
6HR MIN TEMP:  52; 6HR MAX TEMP:  60;

KOKOMO*        CLOUDY    55  43  62 SW12      29.74F
6HR MIN TEMP:  52; 6HR MAX TEMP:  61;

MUNCIE*        CLOUDY    54  44  69 SW7       29.77F
6HR MIN TEMP:  52; 6HR MAX TEMP:  59;

INDIANAPOLIS   CLOUDY    53  44  71 SW10      29.78F
6HR MIN TEMP:  52; 6HR MAX TEMP:  59;


$$
MIZ043>046-050>051-056>058-064>065-071>073-077>080-040700-
SOUTHWEST LOWER MICHIGAN

CITY           SKY/WX    TMP DP  RH WIND       PRES   REMARKS
BATTLE CREEK   LGT RAIN  54  43  66 SW20G26   29.68F
6HR MIN TEMP:  54; 6HR MAX TEMP:  59; 6HR PCP: TRACE;

BENTON HARBOR  MOCLDY    56  43  61 S7        29.64F
6HR MIN TEMP:  56; 6HR MAX TEMP:  62; 6HR PCP:  0.02;

COLDWATER*     CLOUDY    55  41  60 S7        29.68F
6HR MIN TEMP:  53; 6HR MAX TEMP:  59;

HILLSDALE*     MOCLDY    52  38  59 S7        29.70F
HOLLAND        CLOUDY    52  45  77 CALM      29.64F
6HR MIN TEMP:  50; 6HR MAX TEMP:  60; 6HR PCP:  0.02;

GRAND RAPIDS   PTCLDY    54  40  59 SW8       29.65S
6HR MIN TEMP:  54; 6HR MAX TEMP:  62; 6HR PCP: TRACE;

KALAMAZOO      CLOUDY    51  44  77 S6        29.67F
6HR MIN TEMP:  51; 6HR MAX TEMP:  61; 6HR PCP:  0.04;

STURGIS*       CLOUDY    54  43  66 S12       29.68F
6HR MIN TEMP:  53; 6HR MAX TEMP:  59;

THREE RIVERS*  CLOUDY    55  42  63 S8        29.68F
6HR MIN TEMP:  54; 6HR MAX TEMP:  61;


$$
OHZ001>008-015>018-024>025-040700-
NORTHWEST OHIO

CITY           SKY/WX    TMP DP  RH WIND       PRES   REMARKS
DEFIANCE       CLOUDY    50  43  77 S6        29.74F
6HR MIN TEMP:  50; 6HR MAX TEMP:  60;

FINDLAY        PTCLDY    48  41  76 S7        29.75F
6HR MIN TEMP:  47; 6HR MAX TEMP:  59;

TOLEDO EXPRESS PTCLDY    50  43  77 S8        29.73F
6HR MIN TEMP:  49; 6HR MAX TEMP:  60;

TOLEDO METCALF CLEAR     50  43  77 S8        29.75F
6HR MIN TEMP:  49; 6HR MAX TEMP:  59;

LIMA           MOCLDY    48  45  89 S9        29.76F
6HR MIN TEMP:  48; 6HR MAX TEMP:  55;


$$
AND FOR LAKE MICHIGAN COASTAL AND OPEN LAKE BUOY OBSERVATIONS

STATION/POSITION TEMP    WIND        PRES    VSBY  WAVE
                 AIR SEA DIR/SP/G                  HT/PER
                 (F)     (DEG/KT/KT) (MB)    (MI)  (FT/S)
CALUMET HARBOR    59     210/  8/ 11 1004.4F
MICHIGAN CITY     59     180/ 13/ 16   N/A
BURNS HARBOR      60     210/ 13/ 16 1005.8F
SAINT JOSEPH      58     190/ 10/ 15 1005.8F
SOUTH LAKE BUOY   46 41  190/ 12/ 12 1003.1          1/ 3
4 MI NW BRIDGMAN  55 49                N/A           1/ 2

$$
&&




USA.gov is the U.S. government's official web portal to all federal, state and local government web resources and services.